H1 CPF 2 NER 2025 11 5 9 309 01 glonass140 H2 1903001 9140 44299 2025 11 5 0 0 0 2025 11 8 23 45 0 900 1 1 0 0 0 1 H9 10 0 60984 0.00000 0 18446040.232 912587.552 -17579563.243 10 0 60984 900.00000 0 16356986.383 1852516.535 -19468893.010 10 0 60984 1800.00000 0 14159958.106 3046029.553 -20979538.978 10 0 60984 2700.00000 0 11921032.250 4484856.622 -22082047.411 10 0 60984 3600.00000 0 9705044.451 6148393.848 -22754905.676 10 0 60984 4500.00000 0 7573023.409 8004347.951 -22984966.486 10 0 60984 5400.00000 0 5579800.045 10009885.109 -22767708.511 10 0 60984 6300.00000 0 3771891.338 12113237.182 -22107328.033 10 0 60984 7200.00000 0 2185747.103 14255699.006 -21016659.630 10 0 60984 8100.00000 0 846432.610 16373933.767 -19516927.184 10 0 60984 9000.00000 0 -233198.496 18402490.290 -17637329.863 10 0 60984 9900.00000 0 -1052807.190 20276426.870 -15414471.016 10 0 60984 10800.00000 0 -1624336.437 21933931.579 -12891641.124 10 0 60984 11700.00000 0 -1971254.123 23318828.934 -10117968.933 10 0 60984 12600.00000 0 -2127304.986 24382867.439 -7147457.707 10 0 60984 13500.00000 0 -2134825.879 25087691.749 -4037925.962 10 0 60984 14400.00000 0 -2042697.250 25406416.541 -849874.052 10 0 60984 15300.00000 0 -1904019.099 25324736.090 2354700.425 10 0 60984 16200.00000 0 -1773611.264 24841523.361 5513514.444 10 0 60984 17100.00000 0 -1705445.109 23968894.075 8565214.235 10 0 60984 18000.00000 0 -1750116.306 22731733.942 11450568.545 10 0 60984 18900.00000 0 -1952466.284 21166709.849 14113616.958 10 0 60984 19800.00000 0 -2349453.213 19320807.394 16502751.036 10 0 60984 20700.00000 0 -2968362.533 17249456.829 18571707.601 10 0 60984 21600.00000 0 -3825432.343 15014326.250 20280455.691 10 0 60984 22500.00000 0 -4924951.406 12680874.371 21595961.001 10 0 60984 23400.00000 0 -6258867.556 10315764.610 22492814.200 10 0 60984 24300.00000 0 -7806923.061 7984247.501 22953712.186 10 0 60984 25200.00000 0 -9537311.616 5747619.181 22969784.162 10 0 60984 26100.00000 0 -11407830.168 3660860.235 22540757.113 10 0 60984 27000.00000 0 -13367478.451 1770551.387 21674958.134 10 0 60984 27900.00000 0 -15358440.713 113151.029 20389153.762 10 0 60984 28800.00000 0 -17318368.377 -1286295.415 18708229.253 10 0 60984 29700.00000 0 -19182869.869 -2414961.957 16664713.468 10 0 60984 30600.00000 0 -20888105.121 -3272531.953 14298157.683 10 0 60984 31500.00000 0 -22373377.574 -3870960.204 11654379.348 10 0 60984 32400.00000 0 -23583616.220 -4233717.819 8784584.320 10 0 60984 33300.00000 0 -24471644.353 -4394551.887 5744383.492 10 0 60984 34200.00000 0 -25000140.052 -4395812.221 2592722.069 10 0 60984 35100.00000 0 -25143205.887 -4286415.732 -609258.420 10 0 60984 36000.00000 0 -24887481.328 -4119534.352 -3799403.670 10 0 60984 36900.00000 0 -24232750.165 -3950104.344 -6915752.732 10 0 60984 37800.00000 0 -23192016.378 -3832262.610 -9897743.141 10 0 60984 38700.00000 0 -21791044.067 -3816819.019 -12687391.279 10 0 60984 39600.00000 0 -20067379.663 -3948872.452 -15230424.455 10 0 60984 40500.00000 0 -18068896.462 -4265672.448 -17477342.192 10 0 60984 41400.00000 0 -15851921.649 -4794818.064 -19384385.551 10 0 60984 42300.00000 0 -13479023.686 -5552871.429 -20914395.134 10 0 60984 43200.00000 0 -11016552.170 -6544446.003 -22037540.708 10 0 60984 44100.00000 0 -8532032.738 -7761809.508 -22731907.924 10 0 60984 45000.00000 0 -6091525.676 -9185019.785 -22983930.404 10 0 60984 45900.00000 0 -3757058.382 -10782589.244 -22788658.587 10 0 60984 46800.00000 0 -1584238.655 -12512651.265 -22149859.814 10 0 60984 47700.00000 0 379851.715 -14324580.544 -21079947.458 10 0 60984 48600.00000 0 2098395.542 -16161000.108 -19599740.260 10 0 60984 49500.00000 0 3546138.909 -17960091.213 -17738056.313 10 0 60984 50400.00000 0 4710196.393 -19658109.285 -15531149.499 10 0 60984 51300.00000 0 5590330.192 -21192000.175 -13021999.357 10 0 60984 52200.00000 0 6198692.798 -22502006.520 -10259468.360 10 0 60984 53100.00000 0 6559045.599 -23534154.267 -7297343.420 10 0 60984 54000.00000 0 6705488.047 -24242514.386 -4193280.868 10 0 60984 54900.00000 0 6680752.847 -24591144.293 -1007676.165 10 0 60984 55800.00000 0 6534140.947 -24555627.155 2197518.707 10 0 60984 56700.00000 0 6319185.348 -24124144.370 5360006.309 10 0 60984 57600.00000 0 6091144.039 -23298036.396 8418358.872 10 0 60984 58500.00000 0 5904429.284 -22091828.906 11313213.196 10 0 60984 59400.00000 0 5810082.871 -20532723.801 13988421.770 10 0 60984 60300.00000 0 5853404.485 -18659577.134 16392137.744 10 0 60984 61200.00000 0 6071833.514 -16521407.401 18477813.043 10 0 60984 62100.00000 0 6493173.505 -14175496.988 20205091.002 10 0 60984 63000.00000 0 7134233.763 -11685166.153 21540577.216 10 0 60984 63900.00000 0 7999944.904 -9117312.097 22458474.868 10 0 60984 64800.00000 0 9082985.279 -6539814.899 22941073.466 10 0 60984 65700.00000 0 10363933.946 -4018917.075 22979082.703 10 0 60984 66600.00000 0 11811944.033 -1616684.288 22571805.927 10 0 60984 67500.00000 0 13385908.948 611348.987 21727150.469 10 0 60984 68400.00000 0 15036073.602 2618252.815 20461474.904 10 0 60984 69300.00000 0 16706024.440 4367409.710 18799276.027 10 0 60984 70200.00000 0 18334976.435 5833787.662 16772721.072 10 0 60984 71100.00000 0 19860262.753 7004726.658 14421033.401 10 0 60984 72000.00000 0 21219924.107 7880206.932 11789742.515 10 0 60984 72900.00000 0 22355290.366 8472588.545 8929811.851 10 0 60984 73800.00000 0 23213446.827 8805833.724 5896660.159 10 0 60984 74700.00000 0 23749481.892 8914244.883 2749094.603 10 0 60984 75600.00000 0 23928421.556 8840771.565 -451824.405 10 0 60984 76500.00000 0 23726768.814 8634957.715 -3643964.986 10 0 60984 77400.00000 0 23133582.302 8350616.037 -6765329.300 10 0 60984 78300.00000 0 22151047.628 8043327.871 -9755259.214 10 0 60984 79200.00000 0 20794516.001 7767874.701 -12555618.362 10 0 60984 80100.00000 0 19092007.152 7575710.432 -15111927.076 10 0 60984 81000.00000 0 17083196.082 7512582.157 -17374427.645 10 0 60984 81900.00000 0 14817924.917 7616400.905 -19299058.609 10 0 60984 82800.00000 0 12354301.204 7915453.463 -20848318.679 10 0 60984 83700.00000 0 9756461.434 8427031.994 -21992003.040 10 0 60984 84600.00000 0 7092092.620 9156540.497 -22707797.412 10 0 60984 85500.00000 0 4429815.048 10097117.074 -22981717.983 10 0 60985 0.00000 0 1836535.267 11229788.979 -22808388.449 10 0 60985 900.00000 0 -625121.859 12524155.651 -22191148.362 10 0 60985 1800.00000 0 -2899191.792 13939570.338 -21141990.732 10 0 60985 2700.00000 0 -4938465.330 15426773.305 -19681329.590 10 0 60985 3600.00000 0 -6706209.582 16929906.892 -17837601.928 10 0 60985 4500.00000 0 -8177445.041 18388828.380 -15646711.648 10 0 60985 5400.00000 0 -9339726.022 19741623.160 -13151326.344 10 0 60985 6300.00000 0 -10193392.968 20927212.116 -10400040.740 10 0 60985 7200.00000 0 -10751287.463 21887942.943 -7446423.485 10 0 60985 8100.00000 0 -11037943.615 22572055.711 -4347966.401 10 0 60985 9000.00000 0 -11088291.702 22935918.272 -1164957.399 10 0 60985 9900.00000 0 -10945930.595 22945936.905 2040700.115 10 0 60985 10800.00000 0 -10661043.785 22580061.460 5206697.468 10 0 60985 11700.00000 0 -10288048.677 21828821.610 8271536.237 10 0 60985 12600.00000 0 -9883079.956 20695850.790 11175724.722 10 0 60985 13500.00000 0 -9501414.403 19197876.177 13862931.767 10 0 60985 14400.00000 0 -9194946.624 17364175.554 16281075.522 10 0 60985 15300.00000 0 -9009822.507 15235524.263 18383326.303 10 0 60985 16200.00000 0 -8984330.081 12862676.604 20129004.833 10 0 60985 17100.00000 0 -9147136.273 10304445.134 21484359.450 10 0 60985 18000.00000 0 -9515943.206 7625457.675 22423208.367 10 0 60985 18900.00000 0 -10096619.949 4893684.780 22927435.820 10 0 60985 19800.00000 0 -10882845.777 2177839.373 22987333.672 10 0 60985 20700.00000 0 -11856279.706 -455244.745 22601782.772 10 0 60985 21600.00000 0 -12987249.344 -2943148.310 21778271.276 10 0 60985 22500.00000 0 -14235930.723 -5230212.477 20532749.777 10 0 60985 23400.00000 0 -15553970.494 -7269599.489 18889325.971 10 0 60985 24300.00000 0 -16886483.601 -9024984.173 16879804.226 10 0 60985 25200.00000 0 -18174343.950 -10471807.391 14543078.168 10 0 60985 26100.00000 0 -19356673.165 -11598040.376 11924387.036 10 0 60985 27000.00000 0 -20373424.077 -12404428.970 9074449.104 10 0 60985 27900.00000 0 -21167951.189 -12904208.166 6048487.904 10 0 60985 28800.00000 0 -21689460.457 -13122299.287 2905169.248 10 0 60985 29700.00000 0 -21895235.292 -13094023.712 -294531.025 10 0 60985 30600.00000 0 -21752544.640 -12863387.353 -3488506.994 10 0 60985 31500.00000 0 -21240151.898 -12481008.252 -6614727.471 10 0 60985 32400.00000 0 -20349359.935 -12001774.864 -9612442.153 10 0 60985 33300.00000 0 -19084546.783 -11482334.155 -12423365.321 10 0 60985 34200.00000 0 -17463167.885 -10978516.033 -14992813.578 10 0 60985 35100.00000 0 -15515223.202 -10542803.503 -17270774.976 10 0 60985 36000.00000 0 -13282210.016 -10221956.156 -19212888.218 10 0 60985 36900.00000 0 -10815603.967 -10054888.178 -20781312.387 10 0 60985 37800.00000 0 -8174930.720 -10070891.413 -21945469.866 10 0 60985 38700.00000 0 -5425507.926 -10288279.389 -22682647.691 10 0 60985 39600.00000 0 -2635951.035 -10713510.482 -22978445.298 10 0 60985 40500.00000 0 124453.502 -11340828.053 -22827059.728 10 0 60985 41400.00000 0 2788398.596 -12152433.587 -22231402.465 10 0 60985 42300.00000 0 5293120.202 -13119186.178 -21203045.399 10 0 60985 43200.00000 0 7582767.804 -14201799.453 -19761996.703 10 0 60985 44100.00000 0 9610483.194 -15352485.768 -17936310.792 10 0 60985 45000.00000 0 11340101.243 -16516978.505 -15761539.804 10 0 60985 45900.00000 0 12747402.298 -17636847.038 -13280037.317 10 0 60985 46800.00000 0 13820864.757 -18652006.413 -10540127.962 10 0 60985 47700.00000 0 14561887.468 -19503315.299 -7595159.517 10 0 60985 48600.00000 0 14984474.137 -20135151.983 -4502456.474 10 0 60985 49500.00000 0 15114394.690 -20497859.000 -1322196.196 10 0 60985 50400.00000 0 14987860.760 -20549952.656 1883769.582 10 0 60985 51300.00000 0 14649773.012 -20260003.715 5053124.070 10 0 60985 52200.00000 0 14151616.021 -19608109.706 8124301.244 10 0 60985 53100.00000 0 13549091.172 -18586896.687 11037683.798 10 0 60985 54000.00000 0 12899588.723 -17202008.437 13736759.614 10 0 60985 54900.00000 0 12259606.596 -15472062.691 16169214.242 10 0 60985 55800.00000 0 11682225.182 -13428076.494 18287938.462 10 0 60985 56700.00000 0 11214744.548 -11112384.893 20051932.112 10 0 60985 57600.00000 0 10896583.153 -8577098.083 21427087.615 10 0 60985 58500.00000 0 10757525.796 -5882161.095 22386839.182 10 0 60985 59400.00000 0 10816393.607 -3093096.176 22912666.378 10 0 60985 60300.00000 0 11080191.131 -278520.724 22994443.456 10 0 60985 61200.00000 0 11543765.672 2492457.386 22630628.669 10 0 60985 62100.00000 0 12189992.787 5152860.566 21828290.578 10 0 60985 63000.00000 0 12990480.161 7640371.357 20602971.111 10 0 60985 63900.00000 0 13906760.660 9899668.062 18978387.931 10 0 60985 64800.00000 0 14891925.208 11884470.893 16985981.390 10 0 60985 65700.00000 0 15892627.850 13559215.076 14664314.035 10 0 60985 66600.00000 0 16851379.837 14900282.472 12058333.286 10 0 60985 67500.00000 0 17709037.251 15896741.346 9218510.516 10 0 60985 68400.00000 0 18407378.405 16550564.016 6199872.112 10 0 60985 69300.00000 0 18891662.959 16876313.645 3060940.428 10 0 60985 70200.00000 0 19113065.114 16900313.531 -137395.515 10 0 60985 71100.00000 0 19030878.001 16659333.819 -3333058.100 10 0 60985 72000.00000 0 18614395.602 16198850.907 -6463985.183 10 0 60985 72900.00000 0 17844391.739 15570952.921 -9469336.660 10 0 60985 73800.00000 0 16714132.351 14831979.660 -12290679.756 10 0 60985 74700.00000 0 15229876.792 14039996.849 -14873129.533 10 0 60985 75600.00000 0 13410845.269 13252211.659 -17166421.871 10 0 60985 76500.00000 0 11288652.018 12522439.054 -19125897.585 10 0 60985 77400.00000 0 8906226.323 11898726.516 -20713377.978 10 0 60985 78300.00000 0 6316265.080 11421237.977 -21897914.399 10 0 60985 79200.00000 0 3579280.308 11120486.909 -22656396.880 10 0 60985 80100.00000 0 761322.194 11015993.723 -22974009.680 10 0 60985 81000.00000 0 -2068528.149 11115424.670 -22844524.616 10 0 60985 81900.00000 0 -4840792.254 11414249.066 -22270426.239 10 0 60985 82800.00000 0 -7488244.811 11895929.685 -21262866.143 10 0 60985 83700.00000 0 -9948470.984 12532638.537 -19841447.088 10 0 60985 84600.00000 0 -12166224.211 13286467.950 -18033840.910 10 0 60985 85500.00000 0 -14095486.425 14111085.749 -15875247.547 10 0 60986 0.00000 0 -15701144.999 14953764.315 -13407705.917 10 0 60986 900.00000 0 -16960217.799 15757697.819 -10679268.847 10 0 60986 1800.00000 0 -17862573.839 16464507.954 -7743061.835 10 0 60986 2700.00000 0 -18411123.423 17016833.059 -4656240.121 10 0 60986 3600.00000 0 -18621469.002 17360889.264 -1478868.321 10 0 60986 4500.00000 0 -18521034.003 17448895.098 1727255.946 10 0 60986 5400.00000 0 -18147707.964 17241256.397 4899810.449 10 0 60986 6300.00000 0 -17548066.817 16708418.711 7977164.434 10 0 60986 7200.00000 0 -16775245.027 15832308.795 10899578.039 10 0 60986 8100.00000 0 -15886550.705 14607304.242 13610361.354 10 0 60986 9000.00000 0 -14940925.243 13040690.525 16056970.546 10 0 60986 9900.00000 0 -13996355.123 11152586.252 18192020.069 10 0 60986 10800.00000 0 -13107344.971 8975339.839 19974191.968 10 0 60986 11700.00000 0 -12322557.823 6552422.666 21369025.656 10 0 60986 12600.00000 0 -11682721.085 3936864.645 22349573.975 10 0 60986 13500.00000 0 -11218885.146 1189296.741 22896914.095 10 0 60986 14400.00000 0 -10951106.633 -1624319.084 23000504.531 10 0 60986 15300.00000 0 -10887610.493 -4435179.374 22658382.352 10 0 60986 16200.00000 0 -11024465.187 -7174246.313 21877197.432 10 0 60986 17100.00000 0 -11345784.023 -9774865.957 20672083.410 10 0 60986 18000.00000 0 -11824444.000 -12175290.634 19066367.760 10 0 60986 18900.00000 0 -12423292.158 -14321002.433 17091126.126 10 0 60986 19800.00000 0 -13096789.233 -16166742.776 14784588.765 10 0 60986 20700.00000 0 -13793022.277 -17678164.833 12191409.615 10 0 60986 21600.00000 0 -14456002.346 -18833040.904 9361811.076 10 0 60986 22500.00000 0 -15028151.267 -19621975.023 6350619.960 10 0 60986 23400.00000 0 -15452873.242 -20048591.319 3216212.461 10 0 60986 24300.00000 0 -15677103.064 -20129190.370 19387.848 10 0 60986 25200.00000 0 -15653723.280 -19891887.940 -3177807.686 10 0 60986 26100.00000 0 -15343747.728 -19375272.156 -6313284.313 10 0 60986 27000.00000 0 -14718178.290 -18626635.514 -9326115.500 10 0 60986 27900.00000 0 -13759455.192 -17699856.094 -12157724.860 10 0 60986 28800.00000 0 -12462438.071 -16653017.329 -14753029.337 10 0 60986 29700.00000 0 -10834874.673 -15545866.817 -17061515.968 10 0 60986 30600.00000 0 -8897335.541 -14437221.576 -19038230.811 10 0 60986 31500.00000 0 -6682615.585 -13382429.499 -20644660.203 10 0 60986 32400.00000 0 -4234625.837 -12430994.427 -21849486.864 10 0 60986 33300.00000 0 -1606820.214 -11624465.300 -22629205.742 10 0 60986 34200.00000 0 1139778.252 -10994678.752 -22968587.298 10 0 60986 35100.00000 0 3938870.372 -10562429.489 -22860978.982 10 0 60986 36000.00000 0 6721398.106 -10336624.668 -22308438.743 10 0 60986 36900.00000 0 9418181.786 -10313958.072 -21321697.742 10 0 60986 37800.00000 0 11962567.683 -10479117.719 -19919952.751 10 0 60986 38700.00000 0 14292975.800 -10805518.023 -18130492.039 10 0 60986 39600.00000 0 16355241.753 -11256525.227 -15988161.940 10 0 60986 40500.00000 0 18104655.225 -11787123.874 -13534684.439 10 0 60986 41400.00000 0 19507610.174 -12345953.233 -10817839.222 10 0 60986 42300.00000 0 20542798.307 -12877626.751 -7890526.460 10 0 60986 43200.00000 0 21201896.653 -13325235.567 -4809729.148 10 0 60986 44100.00000 0 21489721.540 -13632929.168 -1635395.873 10 0 60986 45000.00000 0 21423843.861 -13748463.128 1570733.337 10 0 60986 45900.00000 0 21033683.425 -13625605.280 4746334.353 10 0 60986 46800.00000 0 20359122.140 -13226297.936 7829715.178 10 0 60986 47700.00000 0 19448696.098 -12522484.309 10761016.700 10 0 60986 48600.00000 0 18357444.117 -11497521.746 13483374.246 10 0 60986 49500.00000 0 17144504.498 -10147122.082 15944017.298 10 0 60986 50400.00000 0 15870561.871 -8479779.482 18095286.275 10 0 60986 51300.00000 0 14595251.772 -6516667.752 19895547.327 10 0 60986 52200.00000 0 13374631.776 -4291011.229 21309988.341 10 0 60986 53100.00000 0 12258824.700 -1846955.232 22311281.861 10 0 60986 54000.00000 0 11289931.713 762017.409 22880103.336 10 0 60986 54900.00000 0 10500301.547 3475058.706 23005495.835 10 0 60986 55800.00000 0 9911227.015 6226235.875 22685075.151 10 0 60986 56700.00000 0 9532122.169 8947026.395 21925072.042 10 0 60986 57600.00000 0 9360213.502 11568925.809 20740211.100 10 0 60986 58500.00000 0 9380757.396 14026061.632 19153428.562 10 0 60986 59400.00000 0 9567774.333 16257706.491 17195434.055 10 0 60986 60300.00000 0 9885269.004 18210587.536 14904124.011 10 0 60986 61200.00000 0 10288885.336 19840897.281 12323857.140 10 0 60986 62100.00000 0 10727927.304 21115923.046 9504604.918 10 0 60986 63000.00000 0 11147660.974 22015227.651 6500992.468 10 0 60986 63900.00000 0 11491801.185 22531332.268 3371247.541 10 0 60986 64800.00000 0 11705078.271 22669872.924 176077.246 10 0 60986 65700.00000 0 11735776.365 22449223.905 -3022506.136 10 0 60986 66600.00000 0 11538135.730 21899603.575 -6162387.580 10 0 60986 67500.00000 0 11074516.795 21061699.920 -9182556.582 10 0 60986 68400.00000 0 10317233.363 19984873.308 -12024295.494 10 0 60986 69300.00000 0 9249976.072 18725011.957 -14632325.354 10 0 60986 70200.00000 0 7868764.355 17342130.324 -16955886.425 10 0 60986 71100.00000 0 6182384.861 15897811.552 -18949731.900 10 0 60986 72000.00000 0 4212295.918 14452601.827 -20575014.917 10 0 60986 72900.00000 0 1992000.154 13063466.513 -21800051.185 10 0 60986 73800.00000 0 -434090.277 11781415.327 -22600942.037 10 0 60986 74700.00000 0 -3012249.868 10649396.669 -22962045.432 10 0 60986 75600.00000 0 -5681431.946 9700549.825 -22876285.508 10 0 60986 76500.00000 0 -8375574.697 8956888.551 -22345294.377 10 0 60986 77400.00000 0 -11026125.500 8428471.357 -21379383.160 10 0 60986 78300.00000 0 -13564678.724 8113093.110 -19997342.616 10 0 60986 79200.00000 0 -15925617.239 7996510.528 -18226077.000 10 0 60986 80100.00000 0 -18048647.458 8053191.458 -16100078.178 10 0 60986 81000.00000 0 -19881122.160 8247555.542 -13660750.209 10 0 60986 81900.00000 0 -21380054.110 8535652.970 -10955597.658 10 0 60986 82800.00000 0 -22513736.451 8867209.312 -8037293.818 10 0 60986 83700.00000 0 -23262902.485 9187948.839 -4962647.480 10 0 60986 84600.00000 0 -23621376.922 9442096.825 -1791489.089 10 0 60986 85500.00000 0 -23596192.287 9574953.810 1414501.175 10 0 60987 0.00000 0 -23207166.897 9535431.824 4592999.402 10 0 60987 900.00000 0 -22485963.350 9278444.344 7682255.465 10 0 60987 1800.00000 0 -21474669.184 8767048.329 10622293.389 10 0 60987 2700.00000 0 -20223960.196 7974247.331 13356076.501 10 0 60987 3600.00000 0 -18790925.257 6884379.330 15830610.400 10 0 60987 4500.00000 0 -17236644.786 5494030.729 17997964.245 10 0 60987 5400.00000 0 -15623625.042 3812437.953 19816190.943 10 0 60987 6300.00000 0 -14013195.774 1861359.658 21250129.301 10 0 60987 7200.00000 0 -12462979.817 -325575.408 22272073.741 10 0 60987 8100.00000 0 -11024539.617 -2704018.165 22862299.835 10 0 60987 9000.00000 0 -9741297.842 -5220499.428 23009436.676 10 0 60987 9900.00000 0 -8646817.626 -7814415.060 22710679.864 10 0 60987 10800.00000 0 -7763512.788 -10420314.781 21971841.709 10 0 60987 11700.00000 0 -7101840.542 -12970401.078 20807238.030 10 0 60987 12600.00000 0 -6660009.340 -15397135.952 19239413.686 10 0 60987 13500.00000 0 -6424213.139 -17635848.806 17298711.752 10 0 60987 14400.00000 0 -6369381.802 -19627238.510 15022693.919 10 0 60987 15300.00000 0 -6460415.937 -21319666.733 12455422.386 10 0 60987 16200.00000 0 -6653854.361 -22671147.930 9646616.104 10 0 60987 17100.00000 0 -6899904.291 -23650953.558 6650696.606 10 0 60987 18000.00000 0 -7144749.009 -24240763.680 3525741.051 10 0 60987 18900.00000 0 -7333035.871 -24435317.751 332362.006 10 0 60987 19800.00000 0 -7410439.634 -24242536.975 -2867464.754 10 0 60987 20700.00000 0 -7326192.496 -23683112.618 -6011601.813 10 0 60987 21600.00000 0 -7035473.345 -22789577.060 -9038957.685 10 0 60987 22500.00000 0 -6501554.229 -21604896.085 -11890676.599 10 0 60987 23400.00000 0 -5697612.066 -20180641.145 -14511286.925 10 0 60987 24300.00000 0 -4608127.516 -18574818.167 -16849785.393 10 0 60987 25200.00000 0 -3229810.204 -16849443.956 -18860635.485 10 0 60987 26100.00000 0 -1572009.392 -15067972.058 -20504660.063 10 0 60987 27000.00000 0 343409.127 -13292676.245 -21749810.423 10 0 60987 27900.00000 0 2482716.648 -11582101.606 -22571796.459 10 0 60987 28800.00000 0 4801479.996 -9988690.342 -22954565.332 10 0 60987 29700.00000 0 7246177.784 -8556681.963 -22890619.063 10 0 60987 30600.00000 0 9756208.141 -7320375.907 -22381164.621 10 0 60987 31500.00000 0 12266204.856 -6302829.339 -21436093.310 10 0 60987 32400.00000 0 14708565.835 -5515044.410 -20073789.640 10 0 60987 33300.00000 0 17016088.574 -4955678.526 -18320773.167 10 0 60987 34200.00000 0 19124602.642 -4611289.077 -16211180.156 10 0 60987 35100.00000 0 20975489.120 -4457101.278 -13786095.146 10 0 60987 36000.00000 0 22517981.531 -4458265.646 -11092745.525 10 0 60987 36900.00000 0 23711151.912 -4571550.696 -8183575.188 10 0 60987 37800.00000 0 24525498.922 -4747397.989 -5115215.804 10 0 60987 38700.00000 0 24944071.759 -4932251.188 -1947376.423 10 0 60987 39600.00000 0 24963083.311 -5071059.203 1258326.091 10 0 60987 40500.00000 0 24591987.683 -5109846.236 4439572.170 10 0 60987 41400.00000 0 23853019.980 -4998238.844 7534555.931 10 0 60987 42300.00000 0 22780218.941 -4691842.275 10483188.456 10 0 60987 43200.00000 0 21417974.772 -4154364.997 13228264.167 10 0 60987 44100.00000 0 19819164.350 -3359401.319 15716567.540 10 0 60987 45000.00000 0 18042952.978 -2291796.763 17899898.875 10 0 60987 45900.00000 0 16152355.431 -948538.585 19735999.847 10 0 60987 46800.00000 0 14211658.547 660866.055 21189361.819 10 0 60987 47700.00000 0 12283812.860 2514540.332 22231902.347 10 0 60987 48600.00000 0 10427901.473 4578910.494 22843498.003 10 0 60987 49500.00000 0 8696790.649 6809873.646 23012364.401 10 0 60987 50400.00000 0 7135058.723 9154412.780 22735277.058 10 0 60987 51300.00000 0 5777288.095 11552592.961 22017629.568 10 0 60987 52200.00000 0 4646789.940 13939857.011 20873328.326 10 0 60987 53100.00000 0 3754813.412 16249526.667 19324525.813 10 0 60987 54000.00000 0 3100271.101 18415406.754 17401197.235 10 0 60987 54900.00000 0 2669991.298 20374385.418 15140567.925 10 0 60987 55800.00000 0 2439485.894 22068923.343 12586401.713 10 0 60987 56700.00000 0 2374201.385 23449329.136 9788162.940 10 0 60987 57600.00000 0 2431200.348 24475726.449 6800067.268 10 0 60987 58500.00000 0 2561202.687 25119630.845 3680038.802 10 0 60987 59400.00000 0 2710900.689 25365070.257 488592.975 10 0 60987 60300.00000 0 2825450.200 25209201.670 -2712333.625 10 0 60987 61200.00000 0 2851032.488 24662397.510 -5860583.906 10 0 60987 62100.00000 0 2737378.050 23747797.352 -8894988.067 10 0 60987 63000.00000 0 2440144.891 22500342.998 -11756554.782 10 0 60987 63900.00000 0 1923049.671 20965336.721 -14389622.171 10 0 60987 64800.00000 0 1159660.293 19196582.639 -16742945.648 10 0 60987 65700.00000 0 134772.640 17254188.787 -18770701.008 10 0 60987 66600.00000 0 -1154688.375 15202121.854 -20433382.643 10 0 60987 67500.00000 0 -2699283.245 13105616.999 -21698579.021 10 0 60987 68400.00000 0 -4477205.912 11028551.246 -22541609.952 10 0 60987 69300.00000 0 -6454960.905 9030890.524 -22946012.867 10 0 60987 70200.00000 0 -8588542.783 7166317.252 -22903868.428 10 0 60987 71100.00000 0 -10825069.811 5480137.665 -22415958.839 10 0 60987 72000.00000 0 -13104804.479 4007556.357 -21491755.538 10 0 60987 72900.00000 0 -15363477.074 2772389.860 -20149236.280 10 0 60987 73800.00000 0 -17534815.539 1786272.594 -18414534.965 10 0 60987 74700.00000 0 -19553175.879 1048387.655 -16321430.893 10 0 60987 75600.00000 0 -21356162.981 545732.674 -13910687.364 10 0 60987 76500.00000 0 -22887131.924 253908.256 -11229252.615 10 0 60987 77400.00000 0 -24097464.673 138394.325 -8329338.979 10 0 60987 78300.00000 0 -24948526.575 156258.942 -5267398.716 10 0 60987 79200.00000 0 -25413220.508 258225.770 -2103017.115 10 0 60987 80100.00000 0 -25477073.661 391011.198 1102254.702 10 0 60987 81000.00000 0 -25138811.797 499830.731 4286103.706 10 0 60987 81900.00000 0 -24410397.584 530967.310 7386671.352 10 0 60987 82800.00000 0 -23316532.360 434291.815 10343758.049 10 0 60987 83700.00000 0 -21893643.288 165628.415 13099991.866 10 0 60987 84600.00000 0 -20188399.450 -311135.685 15601938.646 10 0 60987 85500.00000 0 -18255819.967 -1022285.361 17801132.192 99